Location: Ariel
(45.9570°N, 122.5700°W)
Time: 02:46:28
(UTC-07:00)

Altair - Pass Details

Date: 22 July 2019
Orbit: 1501 x 1683 km, 47.2° (Epoch: 25 August)

Event Time Altitude Azimuth Distance (km) Brightness Sun altitude
Rises 14:58:54 0° 264° (W) 4,636 10.4 56.8°
Reaches altitude 10° 15:01:55 10° 266° (W) 3,652 10.1 56.4°
Maximum altitude 15:11:07 84° 355° (N) 1,521 8.5 55.2°
Drops below altitude 10° 15:20:30 10° 84° (E) 3,713 9.3 53.9°
Sets 15:23:35 0° 86° (E) 4,717 9.7 53.4°
